FENGYUN 2H

Last updated on Jan. 23, 2021, 7:08 a.m. UTC

1 43491U 18050A   21022.86468968 -.00000117  00000-0  00000-0 0  9997
2 43491   0.1492 248.5570 0002577 246.1827  18.3559  1.00270497  9742
UTC
Height (km)
Latitude
Longitude
Inclination
Orbital Period
UTC large
Height (km)
Speed (km/s)
/
Latitude / Longitude
Inclination (degrees)
Orbital Period (minutes)
Azimuth
Elevation
Range (km)
Doppler Factor
iOS Compass Heading
iOS Angle

Next 30 passes for location: Hong Kong

Rise time Rise Azimuth (degrees) Set time Set Azimuth (degrees) Duration Max altitude (degrees)

No matching passes for this satellites